FW8808 Weather Reports


Display with metric or nautical units.
time (UTC)temp
F
wind
direction
speed
MPH
gust
MPH
rain 1hr
in
rain 24hr
in
rain mn
in
humidity
%
barometer
mb
20230208142856 34 91 2.0 4.0 0.00 0.00 0.00 66 1021.6
20230208142622 33 69 2.0 4.0 0.00 0.00 0.00 66 1021.5
20230208141844 33 73 2.0 3.0 0.00 0.00 0.00 66 1021.3
20230208141339 33 66 2.0 5.0 0.00 0.00 0.00 66 1021.2
20230208140832 33 39 2.0 5.0 0.00 0.00 0.00 67 1021.1
20230208140557 32 50 1.0 3.0 0.00 0.00 0.00 68 1021.3
20230208135821 32 51 1.0 3.0 0.00 0.00 0.00 68 1021.3
20230208135314 32 52 2.0 4.0 0.00 0.00 0.00 68 1021.4
20230208134809 32 52 2.0 4.0 0.00 0.00 0.00 68 1021.4
20230208134302 31 43 1.0 3.0 0.00 0.00 0.00 69 1021.4
20230208133756 31 43 1.0 3.0 0.00 0.00 0.00 70 1021.4
20230208133251 31 57 0.0 2.0 0.00 0.00 0.00 70 1021.4
20230208132744 31 57 0.0 2.0 0.00 0.00 0.00 70 1021.5
20230208132238 30 56 0.0 3.0 0.00 0.00 0.00 70 1021.6
20230208131733 30 56 0.0 3.0 0.00 0.00 0.00 70 1021.8
20230208131458 31 24 0.0 1.0 0.00 0.00 0.00 68 1021.8
20230208130721 31 24 0.0 1.0 0.00 0.00 0.00 68 1021.8
20230208130214 32 24 0.0 1.0 0.00 0.00 0.00 67 1021.8
20230208125710 32 24 1.0 2.0 0.00 0.00 0.00 66 1021.8
20230208125203 32 24 1.0 3.0 0.00 0.00 0.00 65 1021.7
20230208124928 32 24 1.0 3.0 0.00 0.00 0.00 65 1021.8
20230208124152 32 24 2.0 3.0 0.00 0.00 0.00 65 1021.8
20230208123916 32 25 1.0 3.0 0.00 0.00 0.00 66 1021.8
20230208123139 32 52 2.0 3.0 0.00 0.00 0.00 66 1021.7
20230208122633 32 52 1.0 3.0 0.00 0.00 0.00 66 1021.7
20230208122126 33 52 1.0 3.0 0.00 0.00 0.00 65 1021.9
20230208121620 33 52 1.0 3.0 0.00 0.00 0.00 65 1021.9
20230208121115 33 52 2.0 5.0 0.00 0.00 0.00 65 1021.9
20230208120609 32 58 2.0 5.0 0.00 0.00 0.00 67 1022.1
20230208120103 32 66 1.0 4.0 0.00 0.00 0.00 68 1022.2
20230208115556 31 37 1.0 2.0 0.00 0.00 0.00 68 1022.3
20230208115051 32 37 1.0 2.0 0.00 0.00 0.00 68 1022.6
20230208114545 32 36 1.0 2.0 0.00 0.00 0.00 67 1022.4
20230208114039 32 36 1.0 3.0 0.00 0.00 0.00 68 1022.5
20230208113533 32 36 1.0 3.0 0.00 0.00 0.00 69 1022.5
20230208113027 31 36 0.0 3.0 0.00 0.00 0.00 70 1022.6
20230208112520 31 38 0.0 2.0 0.00 0.00 0.00 71 1022.7
20230208112015 31 38 1.0 2.0 0.00 0.00 0.00 72 1022.6
20230208111740 30 4 1.0 2.0 0.00 0.00 0.00 74 1022.6
20230208111005 29 4 0.0 2.0 0.00 0.00 0.00 76 1022.7
20230208110456 29 4 0.0 2.0 0.00 0.00 0.00 76 1022.9
20230208105951 29 4 0.0 1.0 0.00 0.00 0.00 76 1022.9
20230208105445 29 4 0.0 1.0 0.00 0.00 0.00 76 1023.0
20230208104939 29 4 1.0 1.0 0.00 0.00 0.00 76 1022.9
20230208104935 29 8 0.0 1.0 0.00 0.00 0.00 77 1023.1
20230208103926 28 4 0.0 1.0 0.00 0.00 0.00 77 1023.1
20230208103421 28 4 0.0 1.0 0.00 0.00 0.00 77 1023.1
20230208102914 28 4 0.0 1.0 0.00 0.00 0.00 77 1023.1
20230208102409 28 4 0.0 1.0 0.00 0.00 0.00 77 1022.9
20230208101902 28 4 0.0 1.0 0.00 0.00 0.00 76 1022.9
20230208101628 28 4 0.0 1.0 0.00 0.00 0.00 76 1022.9
20230208100850 28 4 0.0 1.0 0.00 0.00 0.00 76 1022.9
20230208100349 28 4 0.0 1.0 0.00 0.00 0.00 76 1022.8
20230208095849 28 4 0.0 1.0 0.00 0.00 0.00 76 1022.9
20230208095349 28 4 0.0 1.0 0.00 0.00 0.00 76 1023.0
20230208094852 28 4 0.0 1.0 0.00 0.00 0.00 75 1023.0
20230208094352 28 4 1.0 2.0 0.00 0.00 0.00 75 1022.9
20230208093848 28 4 1.0 2.0 0.00 0.00 0.00 75 1023.1
20230208093346 28 4 1.0 2.0 0.00 0.00 0.00 75 1022.9
20230208092848 28 4 1.0 2.0 0.00 0.00 0.00 75 1022.9
20230208092346 28 4 1.0 2.0 0.00 0.00 0.00 75 1022.9
20230208091848 28 4 0.0 2.0 0.00 0.00 0.00 75 1022.9
20230208091347 28 4 0.0 0.0 0.00 0.00 0.00 75 1022.9
20230208090845 28 4 0.0 0.0 0.00 0.00 0.00 74 1022.9
20230208090345 28 4 0.0 0.0 0.00 0.00 0.00 74 1023.1
20230208085849 29 4 0.0 1.0 0.00 0.00 0.00 74 1023.3
20230208085845 29 4 0.0 1.0 0.00 0.00 0.00 74 1023.2
20230208084845 29 4 0.0 1.0 0.00 0.00 0.00 74 1023.2
20230208084613 29 4 0.0 1.0 0.00 0.00 0.00 74 1023.3
20230208083842 29 4 0.0 1.0 0.00 0.00 0.00 73 1023.4
20230208083342 29 4 0.0 1.0 0.00 0.00 0.00 73 1023.4
20230208082843 29 4 0.0 0.0 0.00 0.00 0.00 72 1023.3
20230208082343 29 4 0.0 1.0 0.00 0.00 0.00 72 1023.2
20230208082114 29 4 1.0 2.0 0.00 0.00 0.00 72 1023.4
20230208081343 29 4 1.0 2.0 0.00 0.00 0.00 71 1023.5
20230208080842 29 4 0.0 2.0 0.00 0.00 0.00 71 1023.5
20230208080343 30 4 0.0 1.0 0.00 0.00 0.00 71 1023.6
20230208080111 30 4 0.0 2.0 0.00 0.00 0.00 70 1023.7
20230208075338 30 4 0.0 2.0 0.00 0.00 0.00 70 1023.6
20230208074838 30 4 0.0 2.0 0.00 0.00 0.00 69 1023.6
20230208074339 30 4 0.0 0.0 0.00 0.00 0.00 69 1023.6
20230208074109 31 4 0.0 0.0 0.00 0.00 0.00 68 1023.6
20230208073614 31 4 1.0 2.0 0.00 0.00 0.00 68 1023.6
20230208072843 31 4 1.0 3.0 0.00 0.00 0.00 68 1023.7
20230208072615 31 4 1.0 3.0 0.00 0.00 0.00 68 1023.6
20230208072116 31 4 1.0 2.0 0.00 0.00 0.00 67 1023.7
20230208071336 31 4 1.0 2.0 0.00 0.00 0.00 67 1023.8
20230208071114 31 4 1.0 2.0 0.00 0.00 0.00 67 1023.9
20230208070327 31 4 1.0 2.0 0.00 0.00 0.00 67 1023.9
20230208065824 31 4 0.0 1.0 0.00 0.00 0.00 67 1023.7
20230208065819 31 4 0.0 1.0 0.00 0.00 0.00 67 1023.9
20230208064811 31 4 0.0 1.0 0.00 0.00 0.00 67 1023.8
20230208064806 31 4 0.0 1.0 0.00 0.00 0.00 66 1023.7
20230208063755 31 4 0.0 2.0 0.00 0.00 0.00 67 1023.8
20230208063249 31 4 0.0 2.0 0.00 0.00 0.00 68 1024.0
20230208062744 31 4 0.0 1.0 0.00 0.00 0.00 67 1024.0
20230208062238 32 4 0.0 1.0 0.00 0.00 0.00 66 1023.9
20230208061731 32 4 0.0 2.0 0.00 0.00 0.00 66 1023.8
20230208061227 32 4 1.0 2.0 0.00 0.00 0.00 65 1023.8
20230208060719 32 4 1.0 2.0 0.00 0.00 0.00 65 1023.7
20230208060444 32 4 0.0 2.0 0.00 0.00 0.00 64 1023.7
20230208055708 32 4 0.0 2.0 0.00 0.00 0.00 64 1023.8
20230208055203 32 4 1.0 3.0 0.00 0.00 0.00 64 1023.8
20230208054709 32 4 1.0 3.0 0.00 0.00 0.00 63 1024.0
20230208054151 32 4 0.0 2.0 0.00 0.00 0.00 64 1023.8
20230208053643 32 4 1.0 2.0 0.00 0.00 0.00 63 1023.8
20230208053138 32 4 1.0 2.0 0.00 0.00 0.00 63 1023.9
20230208052632 32 4 1.0 2.0 0.00 0.00 0.00 63 1023.9
20230208052126 33 4 1.0 2.0 0.00 0.00 0.00 63 1023.9
20230208051620 33 4 1.0 2.0 0.00 0.00 0.00 61 1023.9
20230208051114 33 4 1.0 2.0 0.00 0.00 0.00 60 1023.9
20230208050609 34 4 0.0 1.0 0.00 0.00 0.00 59 1023.8
20230208050334 34 4 0.0 2.0 0.00 0.00 0.00 57 1023.9
20230208050215 34 4 0.0 2.0 0.00 0.00 0.00 57 1024.2
20230208045049 34 4 1.0 2.0 0.00 0.00 0.00 57 1024.0
20230208044546 34 4 1.0 2.0 0.00 0.00 0.00 58 1024.1
20230208044037 34 4 0.0 2.0 0.00 0.00 0.00 58 1024.3
20230208043546 34 4 0.0 1.0 0.00 0.00 0.00 58 1024.2
20230208043309 35 4 0.0 2.0 0.00 0.00 0.00 56 1024.1
20230208042521 35 4 0.0 2.0 0.00 0.00 0.00 55 1024.2
20230208042021 35 4 1.0 2.0 0.00 0.00 0.00 54 1024.3
20230208041516 36 4 1.0 2.0 0.00 0.00 0.00 54 1024.1
20230208041002 37 4 0.0 1.0 0.00 0.00 0.00 53 1023.9
20230208040456 37 4 1.0 3.0 0.00 0.00 0.00 52 1023.8
20230208040215 37 4 1.0 3.0 0.00 0.00 0.00 52 1024.1
20230208035709 37 8 1.0 2.0 0.00 0.00 0.00 51 1024.0
20230208034933 37 8 1.0 2.0 0.00 0.00 0.00 51 1023.9
20230208034426 37 4 1.0 2.0 0.00 0.00 0.00 52 1023.9
20230208033920 37 4 0.0 2.0 0.00 0.00 0.00 51 1023.9
20230208033417 38 4 1.0 2.0 0.00 0.00 0.00 50 1023.8
20230208032916 38 4 1.0 2.0 0.00 0.00 0.00 49 1023.9
20230208032414 39 4 0.0 2.0 0.00 0.00 0.00 48 1023.8
20230208031915 39 4 0.0 2.0 0.00 0.00 0.00 47 1024.0
20230208031415 40 4 0.0 2.0 0.00 0.00 0.00 46 1024.1
20230208030914 40 4 0.0 1.0 0.00 0.00 0.00 46 1023.9
20230208030413 40 4 0.0 1.0 0.00 0.00 0.00 46 1024.0
20230208025912 40 4 0.0 1.0 0.00 0.00 0.00 46 1023.9
20230208025413 40 4 0.0 1.0 0.00 0.00 0.00 46 1024.0
20230208024912 40 4 1.0 2.0 0.00 0.00 0.00 47 1024.0
20230208024409 40 4 1.0 2.0 0.00 0.00 0.00 46 1024.0
20230208023909 40 4 1.0 2.0 0.00 0.00 0.00 46 1023.9
20230208023640 41 4 0.0 2.0 0.00 0.00 0.00 45 1023.9
20230208022909 41 4 0.0 1.0 0.00 0.00 0.00 45 1023.9
20230208022408 41 4 0.0 2.0 0.00 0.00 0.00 44 1023.9
20230208021921 42 4 1.0 3.0 0.00 0.00 0.00 44 1024.0
20230208021418 42 4 1.0 3.0 0.00 0.00 0.00 43 1023.8
20230208020933 42 4 2.0 3.0 0.00 0.00 0.00 43 1023.8
20230208020645 42 8 2.0 3.0 0.00 0.00 0.00 43 1023.7
20230208015906 42 8 2.0 3.0 0.00 0.00 0.00 44 1023.7
20230208015401 42 8 2.0 3.0 0.00 0.00 0.00 43 1023.6
20230208014855 42 8 1.0 3.0 0.00 0.00 0.00 43 1023.5
20230208014622 42 318 1.0 2.0 0.00 0.00 0.00 43 1023.6
20230208013843 42 317 1.0 2.0 0.00 0.00 0.00 43 1023.7
20230208013338 43 318 1.0 3.0 0.00 0.00 0.00 42 1023.6
20230208012832 43 317 1.0 3.0 0.00 0.00 0.00 42 1023.6
20230208012557 43 318 1.0 3.0 0.00 0.00 0.00 42 1023.6
20230208011819 43 317 1.0 3.0 0.00 0.00 0.00 42 1023.5
20230208011312 43 314 1.0 2.0 0.00 0.00 0.00 43 1023.4
20230208010825 44 315 1.0 2.0 0.00 0.00 0.00 42 1023.3
20230208010820 43 315 1.0 2.0 0.00 0.00 0.00 42 1023.3
20230208005755 44 314 2.0 3.0 0.00 0.00 0.00 41 1023.2
20230208005248 44 314 1.0 3.0 0.00 0.00 0.00 41 1023.2
20230208005027 44 315 1.0 2.0 0.00 0.00 0.00 41 1023.2
20230208004239 45 314 1.0 2.0 0.00 0.00 0.00 39 1023.1
20230208003732 45 314 1.0 2.0 0.00 0.00 0.00 39 1023.1
20230208003231 46 314 0.0 1.0 0.00 0.00 0.00 37 1023.1
20230208002719 46 314 1.0 2.0 0.00 0.00 0.00 37 1023.1
20230208002213 46 314 1.0 2.0 0.00 0.00 0.00 37 1023.1
20230208001707 47 315 1.0 2.0 0.00 0.00 0.00 36 1023.1
20230208001201 47 314 1.0 2.0 0.00 0.00 0.00 36 1022.9
20230208000655 47 314 1.0 2.0 0.00 0.00 0.00 36 1022.9
20230208000149 47 314 1.0 2.0 0.00 0.00 0.00 36 1022.9
20230207235914 48 314 1.0 2.0 0.00 0.00 0.00 36 1022.8
20230207235140 48 314 1.0 3.0 0.00 0.00 0.00 36 1022.9
20230207234631 48 314 2.0 4.0 0.00 0.00 0.00 35 1022.7
20230207234126 49 310 2.0 4.0 0.00 0.00 0.00 35 1022.8
20230207233619 49 335 2.0 5.0 0.00 0.00 0.00 35 1022.6
20230207233113 49 322 2.0 5.0 0.00 0.00 0.00 34 1022.6
20230207232607 49 15 2.0 6.0 0.00 0.00 0.00 34 1022.5
20230207232333 50 347 2.0 6.0 0.00 0.00 0.00 34 1022.5
20230207231557 50 339 2.0 6.0 0.00 0.00 0.00 34 1022.5
20230207231049 51 329 2.0 4.0 0.00 0.00 0.00 33 1022.5
20230207230813 51 310 2.0 4.0 0.00 0.00 0.00 33 1022.5
20230207230043 51 320 2.0 4.0 0.00 0.00 0.00 32 1022.4
20230207225810 51 339 2.0 7.0 0.00 0.00 0.00 33 1022.4
20230207225025 51 332 2.0 7.0 0.00 0.00 0.00 32 1022.4
20230207224529 51 326 2.0 7.0 0.00 0.00 0.00 33 1022.4
20230207224018 51 25 2.0 7.0 0.00 0.00 0.00 33 1022.4
20230207223512 51 15 2.0 5.0 0.00 0.00 0.00 33 1022.3
20230207223002 51 276 2.0 5.0 0.00 0.00 0.00 33 1022.2
20230207222455 52 305 2.0 4.0 0.00 0.00 0.00 33 1022.3
20230207222220 51 303 2.0 5.0 0.00 0.00 0.00 33 1022.2
20230207221444 52 343 3.0 5.0 0.00 0.00 0.00 32 1022.2
20230207220939 52 304 3.0 6.0 0.00 0.00 0.00 33 1022.0
20230207220430 52 257 3.0 7.0 0.00 0.00 0.00 33 1022.0
20230207215924 52 269 3.0 7.0 0.00 0.00 0.00 33 1022.0
20230207215419 52 330 3.0 7.0 0.00 0.00 0.00 34 1021.9
20230207214914 51 304 3.0 8.0 0.00 0.00 0.00 34 1022.0
20230207214408 51 326 3.0 8.0 0.00 0.00 0.00 34 1022.0
20230207213901 51 25 4.0 10.0 0.00 0.00 0.00 35 1021.8
20230207213355 51 18 3.0 10.0 0.00 0.00 0.00 34 1021.9
20230207212850 51 320 3.0 12.0 0.00 0.00 0.00 33 1022.0
20230207212342 51 341 3.0 12.0 0.00 0.00 0.00 35 1021.8
20230207211837 51 341 2.0 6.0 0.00 0.00 0.00 35 1021.9
20230207211607 51 25 2.0 7.0 0.00 0.00 0.00 35 1021.8
20230207210834 51 325 3.0 9.0 0.00 0.00 0.00 36 1021.8
20230207210604 51 333 4.0 10.0 0.00 0.00 0.00 36 1021.8
20230207205831 51 9 5.0 10.0 0.00 0.00 0.00 36 1021.6
20230207205328 51 4 3.0 9.0 0.00 0.00 0.00 36 1021.7
20230207204828 52 323 3.0 10.0 0.00 0.00 0.00 37 1021.7
20230207204328 52 312 4.0 10.0 0.00 0.00 0.00 37 1021.7
20230207203828 51 349 4.0 11.0 0.00 0.00 0.00 37 1021.8
20230207203327 51 26 4.0 11.0 0.00 0.00 0.00 37 1022.0
20230207202828 51 30 3.0 10.0 0.00 0.00 0.00 38 1022.1
20230207202334 51 268 3.0 10.0 0.00 0.00 0.00 39 1021.9
20230207202058 51 18 3.0 8.0 0.00 0.00 0.00 39 1022.0
20230207201559 51 291 3.0 8.0 0.00 0.00 0.00 38 1022.1
20230207200829 52 276 3.0 10.0 0.00 0.00 0.00 39 1022.1
20230207200328 51 4 4.0 10.0 0.00 0.00 0.00 39 1021.9
20230207200058 51 308 4.0 10.0 0.00 0.00 0.00 38 1021.9
20230207195326 51 347 4.0 12.0 0.00 0.00 0.00 39 1021.9
20230207194826 51 337 3.0 12.0 0.00 0.00 0.00 39 1021.8
20230207194557 51 359 3.0 11.0 0.00 0.00 0.00 38 1021.9
20230207193825 51 12 4.0 11.0 0.00 0.00 0.00 39 1021.7
20230207193326 50 10 4.0 8.0 0.00 0.00 0.00 39 1021.6
20230207192827 50 298 4.0 10.0 0.00 0.00 0.00 39 1021.7
20230207192325 50 348 4.0 10.0 0.00 0.00 0.00 40 1021.8
20230207191825 50 354 3.0 8.0 0.00 0.00 0.00 39 1021.8
20230207191556 50 305 3.0 9.0 0.00 0.00 0.00 38 1021.7
20230207190824 50 332 3.0 9.0 0.00 0.00 0.00 39 1021.7
20230207190324 49 278 3.0 9.0 0.00 0.00 0.00 40 1021.5
20230207185823 50 354 4.0 11.0 0.00 0.00 0.00 41 1021.6
20230207185324 49 309 4.0 11.0 0.00 0.00 0.00 41 1021.7
20230207184824 49 333 4.0 11.0 0.00 0.00 0.00 40 1021.8
20230207184324 49 33 4.0 11.0 0.00 0.00 0.00 42 1021.9
20230207183823 49 14 3.0 8.0 0.00 0.00 0.00 43 1022.0
20230207183323 49 10 3.0 7.0 0.00 0.00 0.00 43 1022.1
20230207182823 49 301 3.0 7.0 0.00 0.00 0.00 43 1022.1
20230207182316 49 316 3.0 7.0 0.00 0.00 0.00 43 1022.1
20230207181811 48 316 3.0 8.0 0.00 0.00 0.00 43 1022.1
20230207181536 48 277 4.0 8.0 0.00 0.00 0.00 42 1022.2
20230207181036 48 30 3.0 8.0 0.00 0.00 0.00 45 1022.4
20230207180253 48 314 3.0 6.0 0.00 0.00 0.00 45 1022.3
20230207180021 48 305 3.0 8.0 0.00 0.00 0.00 46 1022.3
20230207175240 47 323 3.0 8.0 0.00 0.00 0.00 47 1022.3
20230207174735 47 29 3.0 7.0 0.00 0.00 0.00 46 1022.4
20230207174229 47 284 3.0 10.0 0.00 0.00 0.00 48 1022.5
20230207173723 47 266 3.0 10.0 0.00 0.00 0.00 47 1022.4
20230207173216 46 4 3.0 7.0 0.00 0.00 0.00 48 1022.5
20230207172711 46 4 3.0 7.0 0.00 0.00 0.00 50 1022.5
20230207172205 46 332 3.0 6.0 0.00 0.00 0.00 51 1022.5
20230207171659 46 39 3.0 6.0 0.00 0.00 0.00 50 1022.4
20230207171153 46 100 3.0 7.0 0.00 0.00 0.00 51 1022.4
20230207171149 45 308 4.0 10.0 0.00 0.00 0.00 52 1022.5
20230207170141 45 322 4.0 10.0 0.00 0.00 0.00 53 1022.5
20230207165635 44 274 3.0 8.0 0.00 0.00 0.00 55 1022.5
20230207165128 44 286 3.0 7.0 0.00 0.00 0.00 56 1022.7
20230207164854 44 289 3.0 7.0 0.00 0.00 0.00 57 1022.6
20230207164116 44 274 3.0 5.0 0.00 0.00 0.00 59 1022.5
20230207163841 44 314 3.0 5.0 0.00 0.00 0.00 60 1022.5
20230207163104 44 312 3.0 9.0 0.00 0.00 0.00 62 1022.5
20230207162600 44 27 3.0 9.0 0.00 0.00 0.00 63 1022.4
20230207162052 43 24 3.0 10.0 0.00 0.00 0.00 65 1022.4
20230207161547 43 359 3.0 10.0 0.00 0.00 0.00 65 1022.4
20230207161041 43 354 3.0 6.0 0.00 0.00 0.00 66 1022.4
20230207160534 43 322 3.0 7.0 0.00 0.00 0.00 65 1022.2
20230207160029 42 294 3.0 7.0 0.00 0.00 0.00 66 1022.1
20230207155524 43 322 2.0 4.0 0.00 0.00 0.00 68 1022.1
20230207155017 42 354 2.0 4.0 0.00 0.00 0.00 70 1022.0
20230207154511 41 274 2.0 4.0 0.00 0.00 0.00 70 1022.0
20230207154005 41 306 2.0 5.0 0.00 0.00 0.00 71 1021.9
20230207153729 41 272 3.0 8.0 0.00 0.00 0.00 71 1021.9
20230207152954 40 322 2.0 8.0 0.00 0.00 0.00 72 1021.9
20230207152446 41 269 2.0 5.0 0.00 0.00 0.00 71 1021.8
20230207151940 41 354 2.0 5.0 0.00 0.00 0.00 71 1021.7
20230207151434 40 269 3.0 5.0 0.00 0.00 0.00 72 1021.6
20230207151159 40 344 3.0 7.0 0.00 0.00 0.00 73 1021.6
20230207150423 40 310 3.0 7.0 0.00 0.00 0.00 73 1021.4
20230207145917 40 289 2.0 6.0 0.00 0.00 0.00 74 1021.2
20230207145410 39 285 3.0 8.0 0.00 0.00 0.00 74 1021.1
20230207144906 39 308 3.0 8.0 0.00 0.00 0.00 76 1021.1
20230207144901 39 311 3.0 7.0 0.00 0.00 0.00 76 1021.1
20230207143853 38 303 2.0 6.0 0.00 0.00 0.00 77 1021.0